SL-14 DEB, 45653

Orbit data source: Space-Track

SL-14 DEB, 45653 is space debris in LEO originally from a launch on Thu, 15 Aug 1991 UTC launched from the Plesetsk Missile And Space Complex (PKMTR). Debris objects in space refer to the collection of defunct objects orbiting the Earth. Examples of debris include non-operational satellites, rocket bodies, and fragments generated from explosions, collisions, or faulty payload assembly.

Loading next visibility...
Identifier
45653, 1991-056CX
Orbit
LEO
Country
Flag of CISCIS
Related business
Manufacturer
Unknown
Mission
Spacecraft
Bus & Motor
Unknown
Mass
Unknown
Launch date (UTC)
1991-08-15 (35 years ago)
Launch vehicle
Unknown
Launch site
Plesetsk Missile And Space Complex (PKMTR)
Object type
Payload
Rocket body
Debris
Shape & HBR
Unknown shape, 0.1 m
Radar Cross Section
Small (<0.1 m²)

Expand to show TLE details & history
Last TLE update: 21 hours ago

TLE from 21 hours ago
0 SL-14 DEB
1 45653U 91056CX  26127.72204661  .00001143  00000-0  21750-2 0  9996
2 45653  82.5535 123.8649 0074214  31.5275 329.0273 13.35986820298344
Epoch: 2026-05-07T17:19Z
TLE epoch observation values (Epoch: 2026-05-07T17:19:44.827Z)
Latitude
Longitude
-1.63599°
Altitude
1,079.463 km
Speed
7.336 km/s
True Right ascension
08h 15m 27s
True Declination
0° 00' 00"
Sunlit
Object was in daylight at epoch
Visualization orbit readout
Latitude
Unknown
Longitude
Unknown
Altitude
Unknown
Speed
Unknown
Apparent Right ascension
Unknown
Apparent Declination
Unknown
Sunlit
N/A
Visualization observer readout
Local Sidereal Time
21:58:11
Azimuth
Unknown
Elevation
Unknown
Doppler factor
Unknown
Orbital elements
Apogee altitude
1,177.142 km
Perigee altitude
1,065.826 km
Semi-major axis
7,499.621 km
Eccentricity
0.00742
Inclination
82.5535°
RAAN
123.8649°
Arg. of periapsis
31.5275°
True anomaly
328.58614°
Mean anomaly
329.0273°
Eccentric anomaly
328.80707°
Mean motion
3.34183 °/min
Orbital period
107.73 mins
BSTAR
0.002175
Loading maneuver chart data...
Computing Atmospheric mass density...
Loading historical data...
Loading historical data...
Loading historical data...
Loading historical data...
Loading historical data...
Loading historical data...
Loading historical data...

Documentation

Showing up to 5 results
|